Location: Barrialote
(9.9333°N, 67.3500°W)
Time: 22:58:49
(UTC+00:00)

ATLAS 3B R/B - Pass Details

Date: 18 April 2024
Orbit: 943 x 1251 km, 63.8° (Epoch: 24 May)

Event Time Altitude Azimuth Distance (km) Brightness Sun altitude
Rises 23:38:35 0° 225° (SW) 3,690 6.0 -14.9°
Reaches altitude 10° 23:41:23 10° 235° (SW) 2,778 5.4 -15.6°
Maximum altitude 23:47:07 32° 297° (WNW) 1,711 4.5 -16.9°
Drops below altitude 10° 23:53:15 10° 358° (N) 2,967 5.2 -18.4°
Sets 23:56:21 0° 8° (N) 3,977 5.8 -19.1°
